Regional Weather Roundup
Issued by NWS Kansas City/Pleasant Hill, MO

Home | Current Version | Previous Version | Text Only | Print | Product List | Glossary On
Versions: 1 2 3 4 5 6 7 8 9 10 11 12 13 14 15 16 17 18 19 20 21 22 23 24 25 26 27 28 29 30 31 32 33 34 35 36 37 38 39 40 41 42 43 44 45 46 47 48 49 50
000
ASUS43 KEAX 202110
RWREAX

WEATHER ROUNDUP FOR EASTERN KANSAS AND NORTHWEST MISSOURI
NATIONAL WEATHER SERVICE KANSAS CITY/PLEASANT HILL MO
400 PM CDT WED AUG 20 2014

KSZ040-057-103>105-MOZ028-029-037-043-202200-
...KANSAS CITY METROPOLITAN AREA...

CITY           SKY/WX    TMP DP  RH WIND       PRES   REMARKS
K.C. INTL      MOSUNNY   92  72  51 S13       29.85F HX  99
K.C. DOWNTOWN  MOSUNNY   93  68  43 S18       29.84F HX  97
LEES SUMMIT    PTSUNNY   90  70  51 S7G18     29.87F HX  95
OLATHE - IXD   MOSUNNY   94  69  44 S17G24    29.86F HX  99
OLATHE - OJC   MOSUNNY   91  70  49 S12G22    29.86F HX  96
LAWRENCE       PTSUNNY   96  70  42 S14G21    29.82F HX 102

$$

MOZ001>008-011>017-020>025-030>033-038>040-044>046-053-054-202200-
...NORTHERN AND CENTRAL MISSOURI...

CITY           SKY/WX    TMP DP  RH WIND       PRES   REMARKS
ST. JOSEPH     SUNNY     91  73  55 S14       29.83F HX  99
MOSBY          PTCLDY    90  70  51 SE8       29.85F HX  95
WHITEMAN AFB   MOSUNNY   92  72  51 S10G18    29.88F HX  99
CLINTON        MOSUNNY   93  73  52 SW7       29.89F HX 102
SEDALIA        PTSUNNY   90  69  50 SW6       29.91F HX  94
WARSAW         NOT AVBL
MARSHALL       MOSUNNY   91  75  59 S8        29.90F HX 102
CHILLICOTHE      N/A     88  75  65 S9        29.88F HX  97
MOBERLY        MOSUNNY   90  72  55 S7G16     29.92F HX  96
KIRKSVILLE     MOSUNNY   86  73  65 SE9       29.93F HX  93

$$

MOZ041-047>049-056>058-063>065-088>090-097-202200-
...EASTERN AND SOUTHERN MISSOURI...

CITY           SKY/WX    TMP DP  RH WIND       PRES   REMARKS
ST. LOUIS INTL PTSUNNY   87  73  62 SE13      29.95F HX  94
SPIRIT OF STL  PTSUNNY   89  75  63 SE6       29.93F HX  99
COLUMBIA       MOSUNNY   91  72  53 S8        29.92F HX  98
JEFFERSON CITY SUNNY     92  70  48 SE5       29.90F HX  97
MEXICO         SUNNY     90  79  70 S7        29.93F HX 105
ROLLA          MOSUNNY   90  69  50 S6        29.93F HX  94
LEBANON        MOSUNNY   90  70  51 SW12      29.95F HX  95
OSAGE BEACH    PTSUNNY   93  66  40 SW8       29.91F HX  96
SPRINGFIELD    MOSUNNY   94  64  37 SW14      29.95F HX  95
BRANSON        MOSUNNY   97  63  32 SW15G22   29.99F HX  98
NEVADA         SUNNY     93  68  43 SW13G25   29.91F HX  97
JOPLIN         MOSUNNY   95  66  38 SW18G26   29.93F HX  98
WEST PLAINS    MOSUNNY   91  66  43 SW12      29.99F HX  93

$$

IAZ060-094-KSZ022-034>040-054-083-096-NEZ052-066-093-202200-
...KANSAS...SOUTHEAST NEBRASKA AND IOWA...

CITY           SKY/WX    TMP DP  RH WIND       PRES   REMARKS
TOPEKA         MOSUNNY   95  69  42 S12       29.81F HX 100
MANHATTAN      SUNNY     97  68  38 S13G24    29.77F HX 102
EMPORIA        SUNNY     94  69  44 S24       29.83F HX  99
CHANUTE        MOSUNNY   94  69  44 S21G26    29.88F HX  99
WICHITA        MOSUNNY   96  68  39 S24G33    29.81F HX 101
OMAHA          MOSUNNY   90  73  57 SE20      29.79F HX  98
LINCOLN        SUNNY     95  66  38 S18G30    29.77F HX  98
FALLS CITY     SUNNY     94  71  47 S17G23    29.80F HX 101
LAMONI         MOSUNNY   85  72  65 S14G20    29.88F HX  91
DES MOINES     CLOUDY    82  70  66 S9        29.85F

$$



USA.gov is the U.S. government's official web portal to all federal, state and local government web resources and services.